Location: Monrovia
(34.7865°N, 86.7139°W)
Time: 00:55:31
(UTC+00:00)

Aureole 1 Rocket - Pass Details

Date: 14 July 2020
Orbit: 377 x 1380 km, 73.9° (Epoch: 12 August)

Event Time Altitude Azimuth Distance (km) Brightness Sun altitude
Exits shadow 07:33:52 58° 26° (NNE) 801 3.8 -28.7°
Drops below altitude 10° 07:38:20 10° 19° (NNE) 2,422 7.0 -28.3°
Sets 07:41:09 0° 19° (NNE) 3,541 8.2 -28.0°
